STARLINK-5116 (54014 NORAD) Tracking and Keplerian Element Data

This shows tracking and keplerian element data for the satellite.

Feedback or suggestion? Click here.




ElementValue
Catalog54014
NameSTARLINK-5116
Epoch Orbit766
Epoch Day325.25001157
Epoch Year2022
RAAN222.5167
Inclination53.2156
Eccentricity0.0002884
Argument of Perigee12.3498
Mean Anonmoly285.5607
Mean Motion15.73179387
Decay Rate0.00040486
L11 54014U 22125BC 22325.25001157 .00040486 00000+0 29171-3 0 9995
L22 54014 53.2156 222.5167 0002884 12.3498 285.5607 15.73179387 7665



Live tracking and technical data element details for STARLINK-5116 (NORAD 54014). STARLINK-5116 can be tracked NOW for your location showing map with azimuth and elevation plus other details from your city location.







IsCatalogInMostPopularTable: catalog: 54014, numindb: 4
Update: records affected: 1



GetName: 54014 STARLINK-5116

Hit Count: updated at: Fri, 09 Dec 2022 19:30:37 GMT